Hourly Data Report for August 09, 2020

SVARTEVAEG
NUNAVUT
Current Station Operator: ECCC - MSC

81°09'39.000" N
91°48'59.060" W
72.00 m
2403833
71872
NSG

Download Data

Hourly Data (August 2020)
Hourly Data Report for August 9, 2020
TIME Temp Definition
°C
Dew Point Definition
°C
Rel Hum Definition
%
Wind Dir Definition
10's deg

Wind Spd Definition
km/h
Visibility Definition
km
Stn Press Definition
kPa
Hmdx Definition


Wind Chill Definition


Weather Definition


00:00 -0.2 -1.5 91 34 39   100.54   -8 LegendNANA
01:00 -0.7 -1.8 92 34 51   100.53   -9 LegendNANA
02:00 -0.1 -1.5 91 35 42   100.58   -8 LegendNANA
03:00 -0.3 -1.7 90 34 45   100.55   -8 LegendNANA
04:00 0.8 -0.9 88 35 41   100.57     LegendNANA
05:00 1.1 -1.1 85 35 32   100.59     LegendNANA
06:00 1.1 -0.9 86 35 37   100.56     LegendNANA
07:00 2.8 -0.7 78 34 31   100.57     LegendNANA
08:00 2.2 -0.7 81 35 36   100.54     LegendNANA
09:00 3.5 0.1 78 34 31   100.55     LegendNANA
10:00 2.9 -0.8 76 35 31   100.52     LegendNANA
11:00 3.4 -0.7 75 34 29   100.49     LegendNANA
12:00 3.2 -0.4 77 34 33   100.51     LegendNANA
13:00 4.3 -0.5 71 35 28   100.50     LegendNANA
14:00 3.0 -0.7 76 35 27   100.50     LegendNANA
15:00 1.3 -0.9 85 35 31   100.50     LegendNANA
16:00 1.8 -0.9 82 34 27   100.50     LegendNANA
17:00 2.2 -0.6 82 34 29   100.50     LegendNANA
18:00 3.1 -0.7 76 34 26   100.48     LegendNANA
19:00 2.6 -0.8 78 34 25   100.44     LegendNANA
20:00 1.2 -1.0 85 34 23   100.44     LegendNANA
21:00 0.8 -1.2 87 34 23   100.44     LegendNANA
22:00 1.6 -1.1 82 34 20   100.40     LegendNANA
23:00 1.6 -1.0 83 34 26   100.37     LegendNANA

Notes on Data Quality.

Legend

  • E = Estimated
  • M = Missing
  • NA = Not Available*
  • [empty] = Indicates an unobserved value
Date modified: